GIA1105 WAAA-WIMM

Flight info

Callsign GIA1105
Flight time 3h 2m
Altitude 34000
Route GURNI DCT TANUR DCT GUKNO DCT JATAM A585 PKU DCT MEDIA
Aircraft B77W/H-SDE1E2E3FGHIJ4J5M1RWXYZ/LB1D1

Departure

Time 2026-04-24 13:46
Airport Sultan Hasanuddin International Airport (WAAA)

Arrival

Time 2026-04-24 16:49
Airport Kualanamu International Airport (WIMM)
Time Latitude Longitude Altitude Speed Heading
2026-04-24 13:01 -5.07561 119.54871 68 ft 0 kts 300°
2026-04-24 13:34 -5.07562 119.54874 68 ft 2 kts 301°
2026-04-24 13:34 -5.07571 119.54886 68 ft 2 kts 314°
2026-04-24 13:34 -5.07582 119.54895 68 ft 2 kts 326°
2026-04-24 13:35 -5.07595 119.54903 68 ft 2 kts 338°
2026-04-24 13:35 -5.07609 119.54907 68 ft 2 kts 349°
2026-04-24 13:35 -5.07624 119.54909 68 ft 2 kts
2026-04-24 13:35 -5.07639 119.54908 68 ft 2 kts 12°
2026-04-24 13:36 -5.07653 119.54903 68 ft 2 kts 23°
2026-04-24 13:36 -5.07665 119.54897 68 ft 0 kts 32°
2026-04-24 13:36 -5.07667 119.54896 68 ft 0 kts 32°
2026-04-24 13:39 -5.07664 119.54898 68 ft 1 kts 32°
2026-04-24 13:39 -5.07654 119.54904 68 ft 1 kts 32°
2026-04-24 13:39 -5.07641 119.54913 68 ft 3 kts 32°
2026-04-24 13:40 -5.07621 119.54926 68 ft 4 kts 32°
2026-04-24 13:40 -5.07598 119.54943 68 ft 3 kts 52°
2026-04-24 13:40 -5.07588 119.54966 68 ft 3 kts 72°
2026-04-24 13:40 -5.07581 119.54990 68 ft 3 kts 75°
2026-04-24 13:41 -5.07580 119.55020 68 ft 5 kts 103°
2026-04-24 13:41 -5.07601 119.55059 68 ft 7 kts 122°
2026-04-24 13:41 -5.07624 119.55110 69 ft 8 kts 84°
2026-04-24 13:41 -5.07576 119.55154 69 ft 10 kts 30°
2026-04-24 13:42 -5.07503 119.55196 69 ft 12 kts 30°
2026-04-24 13:42 -5.07419 119.55244 69 ft 14 kts 30°
2026-04-24 13:42 -5.07326 119.55297 69 ft 16 kts 30°
2026-04-24 13:42 -5.07223 119.55357 69 ft 17 kts 30°
2026-04-24 13:43 -5.07113 119.55420 69 ft 18 kts 30°
2026-04-24 13:43 -5.07001 119.55484 69 ft 17 kts 30°
2026-04-24 13:43 -5.06899 119.55543 69 ft 16 kts 30°
2026-04-24 13:43 -5.06805 119.55597 69 ft 14 kts 30°
2026-04-24 13:44 -5.06722 119.55646 70 ft 12 kts 30°
2026-04-24 13:44 -5.06664 119.55681 70 ft 6 kts 50°
2026-04-24 13:44 -5.06663 119.55728 70 ft 7 kts 117°
2026-04-24 13:44 -5.06703 119.55777 70 ft 9 kts 129°
2026-04-24 13:45 -5.06742 119.55820 70 ft 5 kts 154°
2026-04-24 13:45 -5.06782 119.55814 70 ft 6 kts 211°
2026-04-24 13:45 -5.06827 119.55787 70 ft 12 kts 210°
2026-04-24 13:45 -5.06990 119.55693 70 ft 54 kts 210°
2026-04-24 13:46 -5.07524 119.55386 69 ft 119 kts 210°
2026-04-24 13:46 -5.08426 119.54865 70 ft 174 kts 210°
2026-04-24 13:46 -5.09530 119.54224 476 ft 186 kts 210°
2026-04-24 13:46 -5.10658 119.53556 1137 ft 194 kts 210°
2026-04-24 13:47 -5.11833 119.52872 1895 ft 196 kts 210°
2026-04-24 13:47 -5.12940 119.51936 2239 ft 214 kts 232°
2026-04-24 13:47 -5.13642 119.50572 2598 ft 230 kts 256°
2026-04-24 13:47 -5.13790 119.48931 2964 ft 247 kts 271°
2026-04-24 13:48 -5.13748 119.47121 3373 ft 265 kts 271°
2026-04-24 13:48 -5.13727 119.45235 3922 ft 276 kts 271°
2026-04-24 13:48 -5.13723 119.43275 4637 ft 281 kts 271°
2026-04-24 13:48 -5.13723 119.41309 5336 ft 285 kts 271°
2026-04-24 13:49 -5.13722 119.39306 6033 ft 289 kts 271°
2026-04-24 13:49 -5.13722 119.37294 6725 ft 292 kts 271°
2026-04-24 13:49 -5.13722 119.35246 7381 ft 296 kts 271°
2026-04-24 13:49 -5.13722 119.33162 8040 ft 299 kts 271°
2026-04-24 13:50 -5.13721 119.31055 8669 ft 303 kts 271°
2026-04-24 13:50 -5.13721 119.28947 9290 ft 306 kts 272°
2026-04-24 13:50 -5.13721 119.26803 9935 ft 308 kts 271°
2026-04-24 13:50 -5.13720 119.24642 10401 ft 318 kts 271°
2026-04-24 13:51 -5.13652 119.22363 10669 ft 334 kts 281°
2026-04-24 13:51 -5.12888 119.20126 10882 ft 349 kts 300°
2026-04-24 13:51 -5.11668 119.17964 11178 ft 365 kts 302°
2026-04-24 13:51 -5.10342 119.15704 11554 ft 379 kts 302°
2026-04-24 13:52 -5.08986 119.13399 12163 ft 386 kts 302°
2026-04-24 13:52 -5.07627 119.11086 12894 ft 389 kts 302°
2026-04-24 13:52 -5.06227 119.08704 13625 ft 394 kts 301°
2026-04-24 13:52 -5.04838 119.06341 14373 ft 399 kts 301°
2026-04-24 13:53 -5.03424 119.03935 15110 ft 405 kts 301°
2026-04-24 13:53 -5.01982 119.01483 15850 ft 411 kts 301°
2026-04-24 13:53 -5.00520 118.98997 16600 ft 416 kts 301°
2026-04-24 13:53 -4.99024 118.96452 17276 ft 423 kts 301°
2026-04-24 13:54 -4.97521 118.93896 18030 ft 427 kts 300°
2026-04-24 13:54 -4.96008 118.91322 18849 ft 429 kts 301°
2026-04-24 13:54 -4.94501 118.88761 19581 ft 433 kts 301°
2026-04-24 13:54 -4.92956 118.86134 20224 ft 438 kts 301°
2026-04-24 13:55 -4.91388 118.83469 20913 ft 442 kts 300°
2026-04-24 13:55 -4.89824 118.80809 21610 ft 445 kts 300°
2026-04-24 13:55 -4.88220 118.78084 22290 ft 449 kts 300°
2026-04-24 13:55 -4.86692 118.75487 22892 ft 453 kts 300°
2026-04-24 13:56 -4.85075 118.72738 23520 ft 457 kts 301°
2026-04-24 13:56 -4.83448 118.69974 24133 ft 462 kts 301°
2026-04-24 13:56 -4.81808 118.67188 24754 ft 466 kts 301°
2026-04-24 13:56 -4.80158 118.64384 25397 ft 469 kts 301°
2026-04-24 13:57 -4.78511 118.61589 25989 ft 473 kts 301°
2026-04-24 13:57 -4.76826 118.58728 26575 ft 478 kts 301°
2026-04-24 13:57 -4.75134 118.55853 27153 ft 482 kts 301°
2026-04-24 13:57 -4.73422 118.52947 27720 ft 487 kts 301°
2026-04-24 13:58 -4.71691 118.50009 28286 ft 491 kts 301°
2026-04-24 13:58 -4.69946 118.47048 28882 ft 494 kts 301°
2026-04-24 13:58 -4.68197 118.44080 29435 ft 498 kts 302°
2026-04-24 13:58 -4.66416 118.41058 29958 ft 503 kts 302°
2026-04-24 13:59 -4.64644 118.38052 30459 ft 507 kts 302°
2026-04-24 13:59 -4.62843 118.34996 30946 ft 512 kts 302°
2026-04-24 13:59 -4.61028 118.31918 31398 ft 516 kts 302°
2026-04-24 13:59 -4.59199 118.28816 31870 ft 519 kts 302°
2026-04-24 14:00 -4.57345 118.25671 32462 ft 519 kts 302°
2026-04-24 14:00 -4.55527 118.22588 33189 ft 516 kts 302°
2026-04-24 14:00 -4.53704 118.19497 33813 ft 515 kts 303°
2026-04-24 14:00 -4.51879 118.16403 33884 ft 511 kts 303°
2026-04-24 14:01 -4.50087 118.13363 33886 ft 499 kts 303°
2026-04-24 14:01 -4.48337 118.10394 33887 ft 492 kts 303°
2026-04-24 14:01 -4.44843 118.04473 33888 ft 497 kts 303°
2026-04-24 14:02 -4.41342 117.98541 33885 ft 495 kts 303°
2026-04-24 14:02 -4.37828 117.92589 33880 ft 495 kts 303°
2026-04-24 14:03 -4.34336 117.86677 33875 ft 496 kts 303°
2026-04-24 14:03 -4.30828 117.80736 33879 ft 495 kts 303°
2026-04-24 14:04 -4.27316 117.74792 33875 ft 496 kts 303°
2026-04-24 14:04 -4.23804 117.68848 33877 ft 495 kts 303°
2026-04-24 14:05 -4.20303 117.62925 33875 ft 496 kts 303°
2026-04-24 14:05 -4.16783 117.56971 33873 ft 495 kts 303°
2026-04-24 14:06 -4.13296 117.51073 33873 ft 495 kts 303°
2026-04-24 14:06 -4.09779 117.45128 33872 ft 495 kts 303°
2026-04-24 14:07 -4.06288 117.39227 33872 ft 495 kts 303°
2026-04-24 14:07 -4.02749 117.33247 33865 ft 495 kts 303°
2026-04-24 14:08 -3.99256 117.27319 33857 ft 496 kts 301°
2026-04-24 14:08 -3.96802 117.20855 33868 ft 500 kts 287°
2026-04-24 14:09 -3.94977 117.14168 33865 ft 499 kts 287°
2026-04-24 14:09 -3.93150 117.07452 33865 ft 500 kts 287°
2026-04-24 14:10 -3.91327 117.00761 33866 ft 499 kts 287°
2026-04-24 14:10 -3.89492 116.94031 33869 ft 499 kts 287°
2026-04-24 14:11 -3.87670 116.87354 33871 ft 500 kts 287°
2026-04-24 14:12 -3.84917 116.77273 33871 ft 500 kts 287°
2026-04-24 14:12 -3.83091 116.70585 33871 ft 500 kts 287°
2026-04-24 14:13 -3.81251 116.63855 33873 ft 501 kts 287°
2026-04-24 14:13 -3.79412 116.57127 33879 ft 502 kts 287°
2026-04-24 14:14 -3.77582 116.50436 33879 ft 500 kts 287°
2026-04-24 14:14 -3.74814 116.40318 33885 ft 502 kts 287°
2026-04-24 14:15 -3.72969 116.33578 33882 ft 502 kts 287°
2026-04-24 14:15 -3.71127 116.26846 33886 ft 502 kts 287°
2026-04-24 14:16 -3.69286 116.20125 33890 ft 503 kts 287°
2026-04-24 14:17 -3.66509 116.09991 33889 ft 502 kts 287°
2026-04-24 14:17 -3.63746 115.99911 33890 ft 502 kts 287°
2026-04-24 14:18 -3.61902 115.93185 33892 ft 502 kts 287°
2026-04-24 14:18 -3.60056 115.86455 33893 ft 501 kts 287°
2026-04-24 14:19 -3.58202 115.79701 33889 ft 501 kts 287°
2026-04-24 14:19 -3.56502 115.73507 33890 ft 501 kts 287°
2026-04-24 14:20 -3.54658 115.66788 33890 ft 501 kts 287°
2026-04-24 14:20 -3.52806 115.60044 33890 ft 500 kts 287°
2026-04-24 14:21 -3.50956 115.53310 33894 ft 501 kts 287°
2026-04-24 14:21 -3.49113 115.46604 33896 ft 499 kts 287°
2026-04-24 14:22 -3.47269 115.39896 33900 ft 500 kts 287°
2026-04-24 14:23 -3.44531 115.29939 33895 ft 500 kts 287°
2026-04-24 14:23 -3.42683 115.23221 33896 ft 499 kts 287°
2026-04-24 14:24 -3.40841 115.16528 33891 ft 499 kts 287°
2026-04-24 14:24 -3.39001 115.09843 33888 ft 499 kts 287°
2026-04-24 14:25 -3.37168 115.03185 33881 ft 498 kts 287°
2026-04-24 14:25 -3.35331 114.96512 33875 ft 498 kts 287°
2026-04-24 14:26 -3.33486 114.89817 33875 ft 498 kts 287°
2026-04-24 14:26 -3.31647 114.83142 33871 ft 497 kts 287°
2026-04-24 14:27 -3.29813 114.76489 33868 ft 498 kts 287°
2026-04-24 14:27 -3.27971 114.69808 33867 ft 499 kts 287°
2026-04-24 14:28 -3.26120 114.63096 33871 ft 499 kts 287°
2026-04-24 14:28 -3.24277 114.56415 33861 ft 498 kts 287°
2026-04-24 14:29 -3.22430 114.49721 33857 ft 498 kts 287°
2026-04-24 14:29 -3.20592 114.43063 33854 ft 498 kts 287°
2026-04-24 14:30 -3.18745 114.36372 33856 ft 497 kts 287°
2026-04-24 14:30 -3.16903 114.29703 33848 ft 497 kts 287°
2026-04-24 14:31 -3.15060 114.23032 33848 ft 497 kts 287°
2026-04-24 14:31 -3.13224 114.16387 33847 ft 497 kts 287°
2026-04-24 14:32 -3.11381 114.09718 33849 ft 498 kts 287°
2026-04-24 14:32 -3.09537 114.03049 33852 ft 497 kts 287°
2026-04-24 14:33 -3.07696 113.96390 33853 ft 495 kts 286°
2026-04-24 14:33 -3.05865 113.89771 33859 ft 495 kts 286°
2026-04-24 14:34 -3.04020 113.83101 33868 ft 495 kts 286°
2026-04-24 14:34 -3.02186 113.76476 33866 ft 496 kts 286°
2026-04-24 14:35 -3.00341 113.69813 33867 ft 497 kts 286°
2026-04-24 14:35 -2.98500 113.63161 33864 ft 496 kts 286°
2026-04-24 14:36 -2.96657 113.56508 33864 ft 496 kts 286°
2026-04-24 14:36 -2.94829 113.49910 33865 ft 495 kts 286°
2026-04-24 14:37 -2.92989 113.43267 33867 ft 496 kts 286°
2026-04-24 14:37 -2.91141 113.36603 33864 ft 495 kts 286°
2026-04-24 14:38 -2.89298 113.29951 33856 ft 495 kts 286°
2026-04-24 14:38 -2.87451 113.23292 33853 ft 495 kts 286°
2026-04-24 14:39 -2.85609 113.16651 33853 ft 494 kts 286°
2026-04-24 14:39 -2.83778 113.10049 33852 ft 495 kts 286°
2026-04-24 14:40 -2.81935 113.03409 33851 ft 493 kts 286°
2026-04-24 14:40 -2.80109 112.96832 33851 ft 495 kts 286°
2026-04-24 14:41 -2.78274 112.90219 33852 ft 494 kts 286°
2026-04-24 14:41 -2.76435 112.83598 33854 ft 494 kts 286°
2026-04-24 14:42 -2.74597 112.76979 33855 ft 493 kts 286°
2026-04-24 14:42 -2.72768 112.70396 33857 ft 492 kts 286°
2026-04-24 14:43 -2.70942 112.63824 33859 ft 492 kts 286°
2026-04-24 14:43 -2.69101 112.57203 33862 ft 492 kts 286°
2026-04-24 14:44 -2.67272 112.50625 33864 ft 492 kts 286°
2026-04-24 14:44 -2.65450 112.44070 33864 ft 491 kts 286°
2026-04-24 14:45 -2.63616 112.37476 33864 ft 491 kts 286°
2026-04-24 14:45 -2.61778 112.30871 33860 ft 490 kts 286°
2026-04-24 14:46 -2.59946 112.24288 33860 ft 492 kts 286°
2026-04-24 14:46 -2.58127 112.17748 33870 ft 491 kts 286°
2026-04-24 14:47 -2.56292 112.11157 33884 ft 490 kts 286°
2026-04-24 14:47 -2.54471 112.04619 33898 ft 490 kts 286°
2026-04-24 14:48 -2.52646 111.98064 33912 ft 490 kts 286°
2026-04-24 14:48 -2.50811 111.91476 33901 ft 490 kts 286°
2026-04-24 14:49 -2.48973 111.84879 33887 ft 490 kts 285°
2026-04-24 14:49 -2.47150 111.78338 33877 ft 489 kts 285°
2026-04-24 14:50 -2.45315 111.71755 33870 ft 489 kts 285°
2026-04-24 14:50 -2.43497 111.65234 33867 ft 488 kts 285°
2026-04-24 14:51 -2.41665 111.58662 33865 ft 488 kts 285°
2026-04-24 14:51 -2.39837 111.52110 33868 ft 489 kts 285°
2026-04-24 14:52 -2.38017 111.45585 33869 ft 488 kts 285°
2026-04-24 14:52 -2.36186 111.39021 33880 ft 489 kts 285°
2026-04-24 14:53 -2.34363 111.32487 33884 ft 487 kts 285°
2026-04-24 14:53 -2.32539 111.25954 33891 ft 487 kts 285°
2026-04-24 14:54 -2.30718 111.19430 33891 ft 487 kts 285°
2026-04-24 14:54 -2.28908 111.12949 33889 ft 488 kts 285°
2026-04-24 14:55 -2.27079 111.06397 33885 ft 488 kts 285°
2026-04-24 14:55 -2.25261 110.99888 33873 ft 487 kts 285°
2026-04-24 14:56 -2.23482 110.93361 33879 ft 487 kts 283°
2026-04-24 14:56 -2.21880 110.86672 34501 ft 497 kts 283°
2026-04-24 14:56 -2.21084 110.83354 35347 ft 491 kts 283°
2026-04-24 14:57 -2.20284 110.80024 36169 ft 485 kts 284°
2026-04-24 14:57 -2.19496 110.76753 36622 ft 486 kts 284°
2026-04-24 14:57 -2.18704 110.73474 36929 ft 489 kts 284°
2026-04-24 14:57 -2.17904 110.70164 37246 ft 491 kts 284°
2026-04-24 14:58 -2.17103 110.66853 37652 ft 491 kts 284°
2026-04-24 14:58 -2.16288 110.63487 37872 ft 494 kts 284°
2026-04-24 14:58 -2.15490 110.60191 37869 ft 493 kts 284°
2026-04-24 14:59 -2.13879 110.53547 37863 ft 491 kts 284°
2026-04-24 14:59 -2.12269 110.46906 37863 ft 491 kts 284°
2026-04-24 15:00 -2.10664 110.40292 37863 ft 489 kts 284°
2026-04-24 15:00 -2.09052 110.33649 37869 ft 492 kts 284°
2026-04-24 15:01 -2.07449 110.27044 37872 ft 490 kts 284°
2026-04-24 15:01 -2.05835 110.20399 37869 ft 490 kts 284°
2026-04-24 15:02 -2.04230 110.13790 37868 ft 490 kts 284°
2026-04-24 15:02 -2.02627 110.07191 37870 ft 490 kts 284°
2026-04-24 15:03 -2.01019 110.00575 37867 ft 490 kts 284°
2026-04-24 15:03 -1.99414 109.93971 37868 ft 489 kts 284°
2026-04-24 15:04 -1.97806 109.87353 37868 ft 491 kts 284°
2026-04-24 15:04 -1.96194 109.80720 37867 ft 489 kts 284°
2026-04-24 15:05 -1.94582 109.74090 37870 ft 492 kts 284°
2026-04-24 15:05 -1.92970 109.67463 37871 ft 491 kts 284°
2026-04-24 15:06 -1.91368 109.60874 37870 ft 491 kts 284°
2026-04-24 15:06 -1.89765 109.54285 37872 ft 491 kts 284°
2026-04-24 15:07 -1.88167 109.47720 37870 ft 492 kts 284°
2026-04-24 15:07 -1.86555 109.41095 37868 ft 492 kts 284°
2026-04-24 15:08 -1.84939 109.34452 37865 ft 491 kts 284°
2026-04-24 15:08 -1.83326 109.27826 37861 ft 492 kts 284°
2026-04-24 15:09 -1.81713 109.21204 37864 ft 492 kts 284°
2026-04-24 15:09 -1.80098 109.14571 37865 ft 492 kts 284°
2026-04-24 15:10 -1.78476 109.07913 37869 ft 492 kts 284°
2026-04-24 15:10 -1.76862 109.01284 37867 ft 492 kts 284°
2026-04-24 15:11 -1.75244 108.94647 37871 ft 492 kts 284°
2026-04-24 15:11 -1.73629 108.88015 37868 ft 492 kts 284°
2026-04-24 15:12 -1.72002 108.81342 37870 ft 493 kts 284°
2026-04-24 15:12 -1.69577 108.71394 37868 ft 491 kts 284°
2026-04-24 15:13 -1.67955 108.64742 37863 ft 492 kts 284°
2026-04-24 15:13 -1.66068 108.57003 37850 ft 492 kts 284°
2026-04-24 15:14 -1.64730 108.51514 37852 ft 491 kts 284°
2026-04-24 15:14 -1.63111 108.44878 37851 ft 492 kts 284°
2026-04-24 15:15 -1.61488 108.38229 37854 ft 492 kts 284°
2026-04-24 15:15 -1.59864 108.31570 37851 ft 492 kts 284°
2026-04-24 15:16 -1.58248 108.24948 37856 ft 492 kts 284°
2026-04-24 15:16 -1.56628 108.18310 37866 ft 491 kts 284°
2026-04-24 15:17 -1.55015 108.11704 37865 ft 491 kts 284°
2026-04-24 15:17 -1.53400 108.05090 37866 ft 492 kts 284°
2026-04-24 15:18 -1.51774 107.98431 37869 ft 493 kts 284°
2026-04-24 15:18 -1.50151 107.91784 37869 ft 492 kts 284°
2026-04-24 15:19 -1.48529 107.85143 37872 ft 491 kts 284°
2026-04-24 15:19 -1.46912 107.78522 37869 ft 491 kts 284°
2026-04-24 15:20 -1.45294 107.71899 37872 ft 492 kts 284°
2026-04-24 15:20 -1.43678 107.65287 37868 ft 492 kts 284°
2026-04-24 15:21 -1.42053 107.58637 37870 ft 493 kts 284°
2026-04-24 15:21 -1.40429 107.51994 37870 ft 493 kts 284°
2026-04-24 15:22 -1.38812 107.45378 37871 ft 492 kts 284°
2026-04-24 15:23 -1.36657 107.35317 37872 ft 493 kts 275°
2026-04-24 15:23 -1.35970 107.25114 37870 ft 494 kts 274°
2026-04-24 15:25 -1.34864 107.08040 37868 ft 493 kts 274°
2026-04-24 15:26 -1.33751 106.90962 37868 ft 493 kts 274°
2026-04-24 15:27 -1.32410 106.70422 37853 ft 492 kts 274°
2026-04-24 15:29 -1.31072 106.49976 37851 ft 491 kts 274°
2026-04-24 15:31 -1.29511 106.26149 37865 ft 491 kts 274°
2026-04-24 15:33 -1.27731 105.99027 37869 ft 491 kts 274°
2026-04-24 15:34 -1.26619 105.82106 37867 ft 489 kts 274°
2026-04-24 15:35 -1.25504 105.65153 37869 ft 489 kts 274°
2026-04-24 15:36 -1.25062 105.58429 37871 ft 488 kts 274°
2026-04-24 15:36 -1.24393 105.48272 37869 ft 487 kts 274°
2026-04-24 15:37 -1.23947 105.41505 37871 ft 488 kts 274°
2026-04-24 15:37 -1.23428 105.33635 37868 ft 487 kts 274°
2026-04-24 15:38 -1.23058 105.28018 37868 ft 488 kts 274°
2026-04-24 15:38 -1.22612 105.21262 37867 ft 487 kts 274°
2026-04-24 15:39 -1.22168 105.14533 37867 ft 486 kts 275°
2026-04-24 15:39 -1.21722 105.07771 37864 ft 486 kts 274°
2026-04-24 15:40 -1.21279 105.01063 37858 ft 486 kts 274°
2026-04-24 15:40 -1.20834 104.94320 37849 ft 486 kts 274°
2026-04-24 15:41 -1.20390 104.87605 37850 ft 486 kts 274°
2026-04-24 15:41 -1.19946 104.80888 37848 ft 485 kts 274°
2026-04-24 15:42 -1.19501 104.74162 37848 ft 486 kts 275°
2026-04-24 15:42 -1.19057 104.67444 37848 ft 485 kts 274°
2026-04-24 15:43 -1.18613 104.60737 37851 ft 486 kts 274°
2026-04-24 15:43 -1.18162 104.53958 37849 ft 487 kts 275°
2026-04-24 15:44 -1.16667 104.47425 37852 ft 484 kts 293°
2026-04-24 15:44 -1.13358 104.41644 37858 ft 481 kts 306°
2026-04-24 15:45 -1.09514 104.36174 37850 ft 480 kts 306°
2026-04-24 15:45 -1.05662 104.30701 37849 ft 481 kts 306°
2026-04-24 15:46 -1.01804 104.25221 37850 ft 481 kts 306°
2026-04-24 15:46 -0.97946 104.19741 37852 ft 482 kts 306°
2026-04-24 15:47 -0.94096 104.14271 37859 ft 480 kts 306°
2026-04-24 15:47 -0.90264 104.08830 37864 ft 479 kts 306°
2026-04-24 15:48 -0.86402 104.03343 37869 ft 481 kts 306°
2026-04-24 15:48 -0.82548 103.97870 37870 ft 481 kts 306°
2026-04-24 15:49 -0.78695 103.92399 37864 ft 481 kts 306°
2026-04-24 15:49 -0.74841 103.86924 37865 ft 481 kts 306°
2026-04-24 15:50 -0.71015 103.81491 37868 ft 480 kts 306°
2026-04-24 15:50 -0.67165 103.76024 37872 ft 480 kts 306°
2026-04-24 15:51 -0.63311 103.70552 37867 ft 481 kts 306°
2026-04-24 15:51 -0.59464 103.65089 37867 ft 480 kts 306°
2026-04-24 15:52 -0.55605 103.59610 37868 ft 481 kts 306°
2026-04-24 15:52 -0.51778 103.54175 37870 ft 480 kts 306°
2026-04-24 15:53 -0.47926 103.48707 37868 ft 481 kts 306°
2026-04-24 15:53 -0.44077 103.43243 37868 ft 480 kts 306°
2026-04-24 15:54 -0.40221 103.37769 37863 ft 480 kts 306°
2026-04-24 15:54 -0.36385 103.32324 37861 ft 479 kts 306°
2026-04-24 15:55 -0.32521 103.26842 37859 ft 480 kts 306°
2026-04-24 15:55 -0.28678 103.21390 37863 ft 479 kts 306°
2026-04-24 15:56 -0.24821 103.15917 37857 ft 480 kts 306°
2026-04-24 15:56 -0.20986 103.10477 37849 ft 480 kts 306°
2026-04-24 15:57 -0.17144 103.05026 37851 ft 480 kts 306°
2026-04-24 15:57 -0.13295 102.99565 37849 ft 480 kts 306°
2026-04-24 15:58 -0.09445 102.94103 37850 ft 480 kts 306°
2026-04-24 15:58 -0.05613 102.88666 37850 ft 480 kts 306°
2026-04-24 15:59 -0.01768 102.83212 37859 ft 481 kts 306°
2026-04-24 15:59 0.02093 102.77734 37868 ft 481 kts 306°
2026-04-24 16:00 0.05953 102.72258 37869 ft 481 kts 306°
2026-04-24 16:00 0.09785 102.66821 37868 ft 480 kts 306°
2026-04-24 16:01 0.13684 102.61290 37869 ft 483 kts 306°
2026-04-24 16:01 0.17560 102.55790 37870 ft 483 kts 306°
2026-04-24 16:02 0.21432 102.50296 37871 ft 483 kts 306°
2026-04-24 16:02 0.25317 102.44785 37871 ft 484 kts 305°
2026-04-24 16:03 0.29178 102.39307 37870 ft 483 kts 305°
2026-04-24 16:03 0.33066 102.33791 37870 ft 484 kts 305°
2026-04-24 16:04 0.36952 102.28276 37869 ft 485 kts 305°
2026-04-24 16:04 0.40752 102.22884 37869 ft 485 kts 305°
2026-04-24 16:05 0.46581 102.14614 37870 ft 484 kts 305°
2026-04-24 16:06 0.52422 102.06326 37870 ft 484 kts 304°
2026-04-24 16:07 0.58215 101.98106 37874 ft 483 kts 304°
2026-04-24 16:07 0.64060 101.89812 37868 ft 484 kts 304°
2026-04-24 16:08 0.69866 101.81572 37870 ft 483 kts 304°
2026-04-24 16:09 0.75719 101.73266 37869 ft 483 kts 304°
2026-04-24 16:09 0.79581 101.67785 37876 ft 483 kts 304°
2026-04-24 16:11 0.89236 101.54082 37863 ft 483 kts 304°
2026-04-24 16:11 0.93094 101.48606 37857 ft 482 kts 304°
2026-04-24 16:12 0.98911 101.40348 37853 ft 482 kts 304°
2026-04-24 16:13 1.04667 101.32177 37849 ft 482 kts 304°
2026-04-24 16:14 1.12260 101.21397 37851 ft 481 kts 304°
2026-04-24 16:14 1.18037 101.13195 37851 ft 482 kts 305°
2026-04-24 16:15 1.23811 101.04997 37849 ft 482 kts 304°
2026-04-24 16:16 1.29595 100.96783 37850 ft 481 kts 304°
2026-04-24 16:17 1.39228 100.83102 37858 ft 481 kts 305°
2026-04-24 16:18 1.46950 100.72134 37868 ft 483 kts 305°
2026-04-24 16:19 1.52736 100.63914 37873 ft 483 kts 305°
2026-04-24 16:20 1.58539 100.55669 37874 ft 482 kts 305°
2026-04-24 16:20 1.64314 100.47463 37875 ft 482 kts 305°
2026-04-24 16:21 1.70099 100.39243 37875 ft 482 kts 305°
2026-04-24 16:22 1.73975 100.33734 37874 ft 484 kts 305°
2026-04-24 16:22 1.79783 100.25479 37875 ft 484 kts 305°
2026-04-24 16:23 1.83716 100.20021 37869 ft 484 kts 310°
2026-04-24 16:24 1.91714 100.14073 37873 ft 482 kts 338°
2026-04-24 16:24 1.98093 100.11951 37872 ft 481 kts 346°
2026-04-24 16:25 2.04621 100.10283 37827 ft 481 kts 346°
2026-04-24 16:25 2.07884 100.09387 37324 ft 498 kts 341°
2026-04-24 16:25 2.11100 100.08028 36712 ft 504 kts 332°
2026-04-24 16:26 2.17196 100.04447 35516 ft 500 kts 329°
2026-04-24 16:26 2.20180 100.02647 34930 ft 501 kts 329°
2026-04-24 16:26 2.26170 99.99032 33759 ft 507 kts 329°
2026-04-24 16:27 2.29206 99.97200 33224 ft 507 kts 329°
2026-04-24 16:27 2.32229 99.95375 32719 ft 507 kts 329°
2026-04-24 16:27 2.35275 99.93536 31743 ft 510 kts 329°
2026-04-24 16:27 2.38313 99.91702 30757 ft 512 kts 329°
2026-04-24 16:28 2.41396 99.89841 30144 ft 506 kts 329°
2026-04-24 16:28 2.44380 99.88039 29585 ft 500 kts 329°
2026-04-24 16:28 2.50281 99.84476 28448 ft 489 kts 329°
2026-04-24 16:29 2.53203 99.82712 27885 ft 485 kts 329°
2026-04-24 16:29 2.56104 99.80960 27311 ft 480 kts 329°
2026-04-24 16:29 2.61862 99.77483 26130 ft 473 kts 329°
2026-04-24 16:30 2.67447 99.74116 24973 ft 465 kts 330°
2026-04-24 16:30 2.70189 99.72463 24403 ft 461 kts 330°
2026-04-24 16:30 2.72957 99.70793 23841 ft 457 kts 330°
2026-04-24 16:31 2.75680 99.69151 23211 ft 453 kts 330°
2026-04-24 16:31 2.78350 99.67540 22509 ft 448 kts 330°
2026-04-24 16:31 2.81006 99.65939 21782 ft 444 kts 330°
2026-04-24 16:31 2.83642 99.64348 21056 ft 440 kts 330°
2026-04-24 16:32 2.86265 99.62766 20335 ft 436 kts 330°
2026-04-24 16:32 2.88849 99.61207 19635 ft 432 kts 330°
2026-04-24 16:32 2.91390 99.59674 18903 ft 427 kts 330°
2026-04-24 16:32 2.93961 99.58123 18181 ft 429 kts 330°
2026-04-24 16:33 2.96508 99.56587 17514 ft 429 kts 330°
2026-04-24 16:33 2.99090 99.55029 16889 ft 427 kts 330°
2026-04-24 16:33 3.01606 99.53511 16294 ft 425 kts 330°
2026-04-24 16:33 3.04145 99.51979 15693 ft 423 kts 330°
2026-04-24 16:34 3.06634 99.50476 15087 ft 414 kts 330°
2026-04-24 16:34 3.09100 99.48988 14576 ft 405 kts 330°
2026-04-24 16:34 3.11506 99.47536 14040 ft 402 kts 330°
2026-04-24 16:34 3.13910 99.46085 13476 ft 400 kts 330°
2026-04-24 16:35 3.16286 99.44651 12928 ft 397 kts 330°
2026-04-24 16:35 3.18630 99.43236 12423 ft 393 kts 330°
2026-04-24 16:35 3.21003 99.41803 11869 ft 390 kts 330°
2026-04-24 16:35 3.23338 99.40394 11328 ft 387 kts 330°
2026-04-24 16:36 3.25657 99.38994 10835 ft 382 kts 330°
2026-04-24 16:36 3.27910 99.37633 10727 ft 367 kts 330°
2026-04-24 16:36 3.30047 99.36342 10669 ft 351 kts 330°
2026-04-24 16:36 3.32105 99.35098 10588 ft 336 kts 330°
2026-04-24 16:37 3.34050 99.33924 10489 ft 324 kts 330°
2026-04-24 16:37 3.35953 99.32775 10375 ft 312 kts 331°
2026-04-24 16:37 3.37808 99.31655 10251 ft 301 kts 331°
2026-04-24 16:37 3.39589 99.30580 10127 ft 291 kts 331°
2026-04-24 16:38 3.41307 99.29542 9999 ft 282 kts 331°
2026-04-24 16:38 3.42999 99.28522 9666 ft 281 kts 331°
2026-04-24 16:38 3.44692 99.27500 9293 ft 282 kts 331°
2026-04-24 16:38 3.46375 99.26484 8935 ft 283 kts 330°
2026-04-24 16:39 3.48054 99.25470 8588 ft 283 kts 330°
2026-04-24 16:39 3.49752 99.24444 8244 ft 282 kts 331°
2026-04-24 16:39 3.51425 99.23433 7902 ft 282 kts 330°
2026-04-24 16:39 3.53108 99.22417 7558 ft 282 kts 330°
2026-04-24 16:40 3.54791 99.21400 7217 ft 282 kts 330°
2026-04-24 16:40 3.56478 99.20380 6874 ft 281 kts 330°
2026-04-24 16:40 3.58158 99.19365 6533 ft 281 kts 330°
2026-04-24 16:40 3.59836 99.18352 6196 ft 281 kts 330°
2026-04-24 16:41 3.61501 99.17345 5863 ft 280 kts 330°
2026-04-24 16:41 3.63163 99.16341 5531 ft 280 kts 330°
2026-04-24 16:41 3.64839 99.15328 5206 ft 279 kts 330°
2026-04-24 16:41 3.66495 99.14327 4918 ft 277 kts 330°
2026-04-24 16:42 3.68166 99.13317 4632 ft 275 kts 330°
2026-04-24 16:42 3.69811 99.12323 4343 ft 273 kts 330°
2026-04-24 16:42 3.71409 99.11357 4056 ft 268 kts 330°
2026-04-24 16:42 3.72997 99.10397 3984 ft 255 kts 330°
2026-04-24 16:43 3.74492 99.09493 3843 ft 249 kts 330°
2026-04-24 16:43 3.75990 99.08588 3595 ft 247 kts 330°
2026-04-24 16:43 3.77472 99.07692 3332 ft 245 kts 330°
2026-04-24 16:43 3.78851 99.06699 3059 ft 244 kts 312°
2026-04-24 16:44 3.79600 99.05234 2901 ft 235 kts 280°
2026-04-24 16:44 3.79538 99.03635 2715 ft 226 kts 251°
2026-04-24 16:44 3.78811 99.02274 2539 ft 218 kts 232°
2026-04-24 16:44 3.77854 99.01109 2369 ft 212 kts 229°
2026-04-24 16:45 3.76887 99.00011 2204 ft 206 kts 225°
2026-04-24 16:45 3.75877 98.98998 2039 ft 198 kts 224°
2026-04-24 16:45 3.74917 98.98060 1981 ft 190 kts 223°
2026-04-24 16:45 3.73959 98.97119 1975 ft 191 kts 224°
2026-04-24 16:46 3.73016 98.96187 1973 ft 189 kts 224°
2026-04-24 16:46 3.72055 98.95237 1898 ft 190 kts 224°
2026-04-24 16:46 3.71153 98.94344 1670 ft 172 kts 224°
2026-04-24 16:46 3.70328 98.93528 1463 ft 161 kts 224°
2026-04-24 16:47 3.69535 98.92743 1262 ft 155 kts 223°
2026-04-24 16:47 3.68782 98.91997 1068 ft 151 kts 223°
2026-04-24 16:47 3.68027 98.91250 872 ft 151 kts 223°
2026-04-24 16:47 3.67275 98.90505 671 ft 150 kts 223°
2026-04-24 16:48 3.66519 98.89769 471 ft 150 kts 223°
2026-04-24 16:48 3.65775 98.89036 265 ft 149 kts 224°
2026-04-24 16:48 3.65039 98.88300 92 ft 147 kts 224°
2026-04-24 16:48 3.64327 98.87597 39 ft 131 kts 224°
2026-04-24 16:49 3.63794 98.87063 39 ft 81 kts 225°
2026-04-24 16:49 3.63521 98.86797 39 ft 27 kts 223°
2026-04-24 16:49 3.63401 98.86677 39 ft 23 kts 225°
2026-04-24 16:49 3.63289 98.86563 39 ft 21 kts 225°
2026-04-24 16:50 3.63220 98.86493 39 ft 20 kts 225°
2026-04-24 16:50 3.63088 98.86374 39 ft 18 kts 214°
2026-04-24 16:50 3.62979 98.86320 39 ft 16 kts 200°
2026-04-24 16:50 3.62893 98.86297 39 ft 8 kts 194°
2026-04-24 16:51 3.62844 98.86311 39 ft 7 kts 130°
2026-04-24 16:51 3.62841 98.86359 39 ft 7 kts 67°
2026-04-24 16:51 3.62873 98.86399 39 ft 7 kts 44°
2026-04-24 16:51 3.62916 98.86443 39 ft 10 kts 45°
2026-04-24 16:52 3.62973 98.86498 39 ft 12 kts 45°
2026-04-24 16:52 3.63041 98.86566 39 ft 14 kts 45°
2026-04-24 16:52 3.63120 98.86645 39 ft 16 kts 45°
2026-04-24 16:52 3.63198 98.86723 39 ft 15 kts 45°
2026-04-24 16:53 3.63280 98.86806 39 ft 18 kts 45°
2026-04-24 16:53 3.63383 98.86906 39 ft 22 kts 45°
2026-04-24 16:53 3.63502 98.87025 39 ft 23 kts 44°
2026-04-24 16:53 3.63614 98.87137 39 ft 22 kts 45°
2026-04-24 16:54 3.63720 98.87242 39 ft 20 kts 45°
2026-04-24 16:54 3.63820 98.87341 39 ft 19 kts 45°
2026-04-24 16:54 3.63910 98.87431 39 ft 17 kts 45°
2026-04-24 16:54 3.63996 98.87517 39 ft 16 kts 44°
2026-04-24 16:55 3.64077 98.87596 39 ft 15 kts 45°
2026-04-24 16:55 3.64152 98.87671 38 ft 14 kts 45°
2026-04-24 16:55 3.64222 98.87741 38 ft 13 kts 45°
2026-04-24 16:55 3.64284 98.87804 38 ft 10 kts 45°
2026-04-24 16:56 3.64288 98.87858 38 ft 8 kts 127°
2026-04-24 16:56 3.64266 98.87907 38 ft 7 kts 70°
2026-04-24 16:56 3.64296 98.87951 38 ft 7 kts 73°
2026-04-24 16:56 3.64279 98.87995 38 ft 7 kts 128°
2026-04-24 16:57 3.64243 98.88031 38 ft 7 kts 135°
2026-04-24 16:57 3.64207 98.88066 38 ft 7 kts 135°
2026-04-24 16:57 3.64171 98.88102 38 ft 8 kts 135°
2026-04-24 16:57 3.64129 98.88137 38 ft 6 kts 168°
2026-04-24 16:58 3.64086 98.88121 38 ft 7 kts 224°
2026-04-24 16:58 3.64051 98.88085 38 ft 7 kts 225°
2026-04-24 16:58 3.64015 98.88049 38 ft 7 kts 225°
2026-04-24 16:58 3.63978 98.88013 39 ft 7 kts 225°
2026-04-24 16:59 3.63942 98.87976 39 ft 7 kts 225°
2026-04-24 16:59 3.63917 98.87933 38 ft 7 kts 248°
2026-04-24 16:59 3.63877 98.87883 39 ft 2 kts 225°
2026-04-24 17:00 3.63870 98.87876 39 ft 0 kts 224°